Wind_Speed
62 61 59 59 59 57 55 56 58 57 56 54 52 52 53 53 53 56 60 59 57 55 50 42 38 42 46 47 47 48 47 45 45 44 42 40 39 37 34 31 29 26 24 22 21 21 20 19 18 19 20 24 27 30 30 31 31 32 33 33 33 32 31
64 64 61 61 61 59 55 54 56 57 55 55 55 53 54 55 55 56 58 59 58 55 52 43 36 39 44 45 45 46 46 46 46 44 41 40 40 37 35 33 31 30 27 24 22 22 22 21 19 19 20 23 27 30 32 32 31 31 32 34 35 34 33
63 65 62 61 61 62 58 51 50 56 58 57 58 59 58 59 58 57 57 59 58 55 52 47 38 37 41 43 43 44 44 45 46 44 42 41 40 39 37 36 35 32 29 26 24 23 23 23 22 21 21 23 25 29 32 33 33 33 34 35 36 36 35
62 64 64 63 62 62 63 58 53 56 60 59 59 60 59 59 59 58 58 58 58 55 51 47 41 38 39 40 41 42 42 44 46 45 42 42 41 40 39 38 36 33 30 28 26 25 25 25 24 24 24 24 24 28 31 33 34 34 35 35 36 36 36
60 62 63 64 61 60 62 64 63 61 59 57 58 60 59 59 60 59 58 57 56 55 51 47 43 39 38 38 39 40 42 44 46 45 44 43 42 41 40 39 37 34 32 30 28 28 28 28 27 27 27 26 25 26 29 32 33 34 34 34 35 36 36
57 57 59 63 62 60 59 61 65 64 57 54 58 62 61 60 61 60 60 58 56 55 51 47 44 40 38 38 39 40 42 44 44 45 46 45 42 41 41 40 38 36 34 32 31 31 32 31 30 29 29 29 27 26 27 30 33 33 33 34 34 35 35
55 52 56 65 66 64 62 61 64 63 56 53 57 63 62 61 62 61 61 60 58 57 51 44 43 41 39 40 41 41 43 44 44 45 46 44 41 40 40 40 39 37 35 34 34 34 34 32 31 31 32 31 29 26 26 29 31 33 33 33 34 35 35
50 49 52 62 66 66 66 66 65 62 57 53 55 61 64 64 62 61 62 61 60 58 49 41 40 41 41 40 41 41 44 45 45 46 47 45 42 41 41 41 40 39 37 36 36 35 35 35 33 33 33 32 31 29 27 27 29 32 34 34 35 35 35
45 46 49 57 64 67 66 65 65 65 63 61 62 65 67 67 64 62 63 61 60 59 49 39 37 40 41 40 40 41 44 46 47 48 48 46 44 43 43 42 41 40 38 37 36 34 34 35 35 35 35 34 33 30 27 27 28 31 34 35 35 35 35
44 44 48 54 62 65 63 62 65 68 69 67 67 67 67 67 65 65 63 57 56 59 49 38 36 40 40 40 41 42 44 44 46 47 46 45 44 45 45 43 42 40 38 37 37 34 33 35 37 37 37 36 34 31 29 28 28 30 32 34 35 35 35
47 45 48 54 59 62 65 68 71 71 70 69 68 68 68 68 65 66 65 57 56 59 49 39 37 40 39 39 40 43 44 45 46 48 48 47 47 48 47 46 44 42 40 39 38 36 35 37 39 39 38 37 35 33 30 29 29 30 31 33 34 35 35
50 48 49 53 58 63 70 74 75 73 72 70 70 70 70 70 68 67 66 62 61 58 48 40 40 40 39 40 42 45 47 48 49 50 51 50 50 51 50 49 47 45 43 41 40 38 36 37 40 40 39 37 36 33 31 30 30 30 30 32 33 34 35
54 51 51 52 55 62 70 75 74 73 72 71 72 72 71 71 71 68 64 65 64 57 48 44 43 42 41 42 44 47 49 50 52 53 53 53 53 53 53 51 49 47 45 43 41 39 37 37 38 39 39 38 36 34 31 30 30 29 29 30 32 34 35
57 54 52 53 55 59 66 72 73 72 72 72 72 73 72 71 71 69 66 67 63 55 49 46 42 40 40 40 43 47 49 51 52 54 56 56 56 56 55 53 51 49 47 45 43 41 38 37 37 38 39 39 37 33 30 29 29 28 28 28 30 32 34
60 56 53 54 57 59 63 68 72 72 72 72 72 73 72 71 72 71 69 68 62 53 50 46 42 40 41 40 42 45 48 51 53 54 57 59 58 58 57 55 54 53 51 48 45 42 40 38 38 39 39 39 37 33 30 30 29 28 28 28 28 30 32
61 57 54 55 57 58 61 66 70 72 72 71 71 71 71 71 73 72 70 69 62 53 50 47 43 43 43 42 44 46 49 52 53 54 57 59 59 59 57 57 56 54 53 51 48 44 41 41 41 40 39 39 37 34 32 30 30 29 29 29 29 30 31
57 56 55 55 56 59 62 65 68 70 71 70 69 69 71 72 72 71 70 68 61 53 50 47 44 44 44 44 45 45 47 51 54 55 56 58 59 59 58 58 56 54 53 52 49 46 44 44 43 40 39 38 36 35 34 33 32 32 31 30 31 31 31
49 52 53 54 56 60 64 65 66 68 68 67 67 68 70 71 71 70 69 67 61 54 50 48 46 44 43 44 44 44 45 48 51 54 56 57 58 59 59 58 56 55 54 53 51 48 46 45 43 41 39 39 38 38 38 36 34 33 33 32 32 32 31
39 44 50 52 54 60 64 62 61 65 67 66 68 70 68 68 70 70 68 66 62 55 50 48 47 45 41 41 42 43 44 46 47 50 54 57 58 58 58 57 56 55 54 53 52 49 47 45 44 42 41 42 42 41 39 37 35 35 34 34 33 33 32
31 37 46 51 50 53 59 58 56 61 67 67 69 71 67 65 67 69 69 67 62 55 51 49 48 46 42 39 41 44 45 45 45 46 49 52 55 57 57 58 57 56 54 53 52 50 49 48 47 45 43 44 44 42 40 37 36 36 36 34 34 35 33
29 32 39 46 45 45 51 56 55 60 67 69 69 68 66 63 64 66 67 68 62 55 53 51 47 46 43 40 42 46 46 43 43 43 44 47 51 54 56 57 57 56 53 51 51 52 51 50 48 46 45 46 44 41 40 38 36 36 35 34 34 35 32
28 30 35 43 47 47 48 53 56 58 65 69 69 66 63 61 62 63 65 66 63 57 54 52 48 46 44 43 45 47 45 42 40 41 42 43 46 50 52 53 52 52 52 50 51 51 50 49 48 46 46 46 44 41 39 38 36 35 33 33 35 35 32
29 30 34 40 46 47 47 51 55 58 63 68 69 67 63 59 59 61 62 63 62 59 56 52 48 46 45 46 47 47 44 41 39 39 40 41 43 44 45 45 46 47 48 49 50 50 50 50 50 48 47 47 45 42 39 37 36 34 32 32 35 33 31
30 31 33 37 42 46 46 48 52 56 61 65 66 67 66 63 59 59 60 61 61 60 57 53 49 47 47 47 46 45 43 40 37 37 39 40 39 37 37 39 41 42 43 45 48 49 50 51 50 48 48 48 46 43 40 37 36 33 31 32 34 32 31
31 33 35 36 41 46 45 46 48 52 58 63 65 67 68 66 61 57 57 60 61 60 58 54 49 48 48 47 46 44 42 39 37 38 38 37 35 34 34 35 37 38 40 42 45 47 47 48 48 48 49 50 49 45 42 39 36 32 31 33 34 32 31
32 33 36 37 41 46 46 46 46 48 54 61 66 68 67 65 63 59 55 57 61 61 58 54 50 49 50 48 46 44 41 38 38 38 37 35 33 32 32 34 34 35 36 38 40 42 43 43 44 46 49 51 50 46 41 37 35 33 33 35 35 32 31
33 34 37 38 41 45 46 45 45 46 51 58 64 68 67 62 61 61 56 55 60 62 59 54 51 50 51 49 47 45 41 39 39 38 37 35 34 34 34 34 33 32 32 33 36 38 39 40 42 45 48 50 49 44 38 36 36 36 36 36 35 32 30
34 38 40 39 39 42 42 42 44 46 49 54 60 65 67 63 59 59 58 56 58 61 60 55 52 51 51 51 49 46 43 41 41 39 38 37 38 38 36 34 31 29 29 30 32 35 37 39 40 42 44 46 44 40 37 38 39 38 37 36 34 32 30
35 37 37 37 38 40 40 40 42 46 48 52 55 58 63 63 58 55 57 58 58 59 59 56 53 52 52 52 51 48 45 44 43 41 41 42 42 40 38 34 30 27 27 28 31 33 35 37 37 38 40 42 41 40 40 40 40 38 38 36 34 32 31
36 37 37 36 37 39 39 38 40 45 48 51 53 52 57 62 59 54 55 58 57 58 59 57 54 53 53 53 52 49 47 47 46 44 45 46 45 42 40 36 32 28 27 27 29 31 34 37 38 39 40 41 42 42 42 41 40 39 38 36 34 33 32
34 34 35 37 37 37 38 37 39 45 48 50 53 51 51 56 59 56 55 57 57 55 56 58 56 53 53 54 53 51 51 50 48 48 49 49 47 44 42 40 36 31 28 28 29 31 34 37 39 40 41 42 43 43 42 41 40 39 37 36 35 34 33
30 30 32 35 35 35 36 36 39 45 48 48 51 52 49 48 53 56 56 56 56 54 53 56 57 54 54 55 54 53 53 53 51 51 52 51 48 45 44 42 40 36 32 30 31 32 34 35 37 39 40 41 41 42 42 41 41 40 38 37 36 36 36
27 30 31 33 33 33 34 36 38 44 48 47 47 51 52 48 47 52 56 57 56 53 51 53 57 56 54 55 55 54 55 55 53 53 55 53 50 47 44 43 42 39 35 33 33 35 36 36 36 37 38 40 40 40 40 41 41 41 39 38 38 39 40
24 30 30 31 33 33 33 35 37 40 46 48 46 47 52 52 47 47 53 57 57 54 50 51 54 56 55 56 56 56 57 57 55 55 56 55 52 49 45 43 43 42 38 35 34 35 37 38 37 37 37 38 37 36 36 39 42 42 41 40 41 42 41
20 27 29 30 33 32 31 34 37 38 42 47 47 44 47 51 50 47 49 54 56 55 51 49 51 54 56 57 57 57 59 59 57 56 58 57 54 51 47 45 44 43 41 37 35 35 37 38 38 38 37 37 36 34 35 38 41 42 42 42 42 43 42
19 25 28 29 31 31 30 32 37 39 39 43 48 46 42 45 50 50 48 50 53 55 53 50 50 53 55 57 58 58 60 61 58 57 59 59 57 54 50 47 46 45 42 39 36 35 36 37 38 38 38 37 36 34 33 35 39 41 42 43 43 43 43
20 24 27 28 29 30 30 31 36 40 38 39 45 48 42 40 45 49 48 47 49 52 52 49 49 51 54 57 58 59 60 62 61 59 59 60 58 55 52 49 47 47 45 42 39 37 38 38 39 39 39 39 38 36 34 33 35 38 41 42 42 42 43
Wind_Direction
216 213 212 214 214 214 216 216 218 219 219 219 221 223 225 224 221 224 229 229 227 228 226 215 203 205 210 210 210 212 212 212 212 213 213 215 217 217 216 215 215 215 214 217 225 229 232 233 228 219 210 204 201 200 199 200 201 201 201 200 201 203 203
217 214 211 214 214 213 215 217 218 219 220 219 220 221 224 224 222 224 229 231 230 229 228 223 207 201 209 212 211 212 212 212 215 215 213 214 216 218 217 215 215 216 214 214 220 226 229 231 230 225 218 209 205 203 202 201 200 201 202 202 203 205 205
219 215 212 213 214 213 215 217 216 218 219 219 220 219 220 222 221 224 229 230 230 229 228 226 214 199 205 212 211 212 213 214 216 217 214 214 216 217 217 216 216 217 218 218 221 227 229 230 231 231 226 218 210 207 205 203 201 201 203 204 205 206 207
220 216 214 213 214 213 214 216 216 217 218 219 221 220 220 222 222 224 230 229 228 228 226 224 216 200 201 210 210 211 212 214 218 217 215 214 215 217 218 219 220 220 222 223 223 226 230 231 231 231 231 225 217 211 209 206 205 204 205 206 207 208 209
221 218 216 214 214 215 215 217 218 217 217 217 220 221 220 222 223 225 230 230 228 229 224 222 218 204 200 208 211 210 209 213 217 216 215 215 215 217 219 220 222 222 224 225 225 225 228 229 228 228 230 228 222 216 212 210 209 208 207 208 209 211 212
223 219 218 215 214 214 214 216 218 219 219 218 218 219 218 220 223 226 230 230 230 230 223 219 220 211 202 206 210 209 209 212 215 214 214 215 215 216 218 219 222 223 224 224 224 225 227 229 228 228 230 230 226 221 216 213 212 210 210 210 210 212 214
225 221 219 217 215 213 213 214 215 217 220 221 220 220 219 220 222 225 229 230 229 229 221 215 220 218 207 205 208 208 207 210 213 212 213 215 214 215 217 218 220 220 220 221 222 224 226 227 227 227 229 231 229 225 220 216 213 212 212 212 212 213 214
228 225 223 219 216 214 214 214 214 214 217 218 218 219 219 219 221 225 230 229 228 228 220 212 218 220 213 208 208 208 207 208 209 209 210 212 212 213 214 215 215 215 216 218 220 222 224 226 226 225 227 230 230 228 225 220 216 214 214 213 213 214 215
228 226 225 222 219 215 213 215 216 216 215 215 216 217 217 217 218 222 228 230 230 229 220 211 216 220 215 210 207 207 208 208 208 207 208 209 210 211 212 212 212 212 214 218 221 222 224 226 226 225 226 229 231 232 229 225 221 217 216 215 215 215 215
225 224 223 222 220 217 214 215 217 217 216 217 217 218 218 219 218 221 225 226 229 229 219 209 215 219 215 210 206 206 208 207 207 208 207 208 209 209 210 210 211 211 213 217 222 222 222 225 226 225 225 228 231 233 232 229 226 222 219 218 217 217 217
223 222 221 221 220 217 214 215 216 216 216 216 217 218 219 219 219 221 225 225 227 227 217 206 214 218 214 211 206 204 206 205 205 206 206 206 207 207 207 208 209 211 212 216 221 223 222 223 224 224 224 227 230 233 235 234 231 228 224 221 220 220 220
224 222 220 220 220 218 215 214 214 214 214 215 217 217 218 219 218 220 225 226 226 225 216 207 212 216 213 211 205 202 204 204 203 204 205 206 206 206 207 208 209 211 212 215 219 223 224 223 223 224 224 226 229 232 234 235 234 233 229 225 223 223 223
223 222 221 219 220 220 218 216 214 214 214 214 216 217 217 219 220 219 223 226 224 221 216 210 211 214 214 211 206 201 203 205 203 203 205 205 206 207 208 209 211 213 214 215 218 222 225 224 223 224 225 226 228 230 232 235 237 239 237 232 228 226 226
223 223 222 220 220 221 219 217 216 215 215 215 216 216 216 218 220 220 222 226 223 218 216 212 210 215 217 214 210 205 204 206 206 204 205 205 205 207 209 211 212 214 215 215 218 221 222 221 222 223 225 226 228 230 232 237 241 243 244 241 236 231 229
223 222 222 220 219 221 220 218 216 215 215 216 216 217 216 217 220 221 222 226 223 216 214 211 208 213 217 214 213 209 205 207 208 206 206 206 206 208 210 212 213 215 216 217 218 219 218 217 218 221 225 228 229 229 230 235 241 244 245 246 244 238 232
222 220 220 220 218 220 220 218 216 215 215 216 217 217 216 217 220 221 222 225 222 215 213 210 206 211 215 214 213 211 207 208 209 209 208 208 209 210 212 213 213 214 216 217 217 215 214 214 215 218 224 228 228 228 229 233 239 243 244 245 245 243 236
223 219 219 219 217 218 219 217 215 215 215 216 217 218 217 216 218 221 223 224 221 213 210 209 206 209 213 215 215 213 210 209 209 211 211 210 211 213 215 215 214 214 216 217 216 213 212 214 215 217 223 227 228 228 230 232 235 239 241 243 243 243 240
226 222 219 218 217 217 217 215 215 215 215 217 219 219 217 216 217 220 222 224 219 212 208 208 206 208 212 216 217 216 214 211 210 211 213 213 214 215 216 217 216 215 216 217 216 212 211 213 215 216 221 226 227 227 229 230 233 236 238 240 241 242 241
228 225 220 218 217 216 214 212 213 214 215 217 219 219 217 216 217 218 221 222 218 211 207 207 207 207 210 215 218 218 217 215 213 212 213 215 216 216 217 218 218 217 217 217 217 214 211 212 214 215 217 222 225 226 228 230 232 234 236 238 241 242 241
227 225 222 219 217 215 213 212 211 213 214 216 218 218 217 217 218 218 219 220 217 210 207 207 207 207 208 213 217 219 218 217 216 215 214 215 217 218 219 219 220 221 220 218 217 215 212 211 214 214 214 219 223 225 227 229 231 233 234 236 240 242 241
224 225 224 221 215 212 213 212 210 211 213 214 216 218 218 218 218 217 218 218 215 209 207 207 206 206 208 212 216 219 219 217 218 218 217 216 217 218 220 221 222 224 224 220 218 218 216 215 215 214 213 217 221 223 225 227 229 232 233 235 240 242 241
220 220 222 219 212 209 212 212 210 211 212 213 214 215 216 218 219 217 216 215 213 209 207 207 205 205 207 210 215 218 218 217 218 219 219 219 218 218 221 222 223 224 224 222 220 221 220 220 221 219 216 216 218 221 224 226 228 231 232 235 240 242 240
214 214 218 218 211 207 211 212 210 211 212 213 214 214 214 216 218 218 215 213 210 208 208 207 204 203 205 209 213 216 216 216 216 217 219 221 221 220 220 221 222 222 222 221 221 221 221 222 224 224 220 218 217 219 223 224 226 229 231 235 239 241 241
214 212 215 216 212 209 210 211 210 211 212 213 215 216 215 214 215 217 214 211 208 208 208 207 204 202 204 208 210 213 215 214 212 214 217 219 220 218 216 216 217 218 218 218 218 219 220 222 225 225 222 219 218 218 220 222 224 226 230 236 239 240 240
214 212 212 213 212 209 208 210 210 210 211 213 214 215 215 214 214 215 213 209 207 207 208 206 203 201 203 206 208 210 213 212 209 211 214 213 211 211 211 213 214 214 214 215 215 216 218 220 223 224 221 220 219 218 219 221 223 224 229 237 239 238 239
211 209 211 213 211 208 207 208 208 208 210 213 213 213 214 215 216 215 212 208 206 207 207 205 203 201 202 204 206 208 210 209 207 207 206 204 206 210 211 213 214 213 212 214 215 216 216 217 219 220 219 219 220 220 219 221 224 225 230 237 238 238 239
207 202 205 209 210 207 207 208 206 206 209 212 213 213 213 215 216 215 212 207 206 207 207 205 202 201 201 202 205 206 207 206 204 203 202 203 207 210 212 212 212 211 213 214 214 215 216 216 216 216 217 219 220 219 219 221 224 226 230 236 237 237 239
204 199 201 206 208 208 208 207 204 204 207 209 212 214 214 214 215 214 212 208 206 207 208 205 202 200 200 201 203 205 204 203 201 202 203 204 206 208 210 210 209 210 213 213 212 213 214 215 214 215 216 217 217 216 218 221 224 227 230 234 236 236 237
200 195 198 203 207 208 208 207 204 202 204 206 210 215 216 215 215 213 211 208 207 208 209 207 203 200 199 200 203 204 201 200 201 203 204 203 203 206 209 208 206 209 213 213 209 209 210 212 213 213 213 213 212 215 219 223 225 227 229 232 233 233 234
192 188 190 197 204 208 209 208 204 202 202 202 205 212 217 217 216 213 210 208 207 209 210 208 204 201 199 199 202 202 199 198 202 204 202 201 201 204 207 207 205 207 213 214 208 203 202 205 208 209 209 210 212 216 221 225 226 226 227 228 229 231 231
183 185 188 192 198 204 207 207 204 201 202 202 203 207 213 216 217 215 211 208 207 209 211 209 206 202 200 200 202 201 198 199 202 203 201 200 201 203 206 208 207 206 211 214 210 203 200 200 202 204 207 209 212 216 220 223 223 222 223 224 226 227 227
181 189 191 190 194 198 202 205 204 200 200 201 204 207 210 214 217 216 213 209 208 209 211 211 208 204 201 200 202 200 198 199 202 201 200 200 200 202 206 209 210 209 209 212 210 207 205 203 202 203 205 208 211 214 217 218 219 218 219 221 222 224 225
182 193 194 191 192 196 198 201 202 201 199 198 201 206 209 212 215 216 214 211 209 208 210 211 208 205 202 201 202 200 198 200 202 201 200 201 201 202 205 210 213 212 211 210 208 207 208 209 207 206 206 208 211 214 216 217 218 217 217 218 219 222 225
184 193 196 194 194 196 198 200 200 200 200 199 199 203 208 211 213 215 214 213 210 208 210 211 210 206 203 201 202 201 198 200 202 201 201 202 203 203 204 208 213 215 213 211 207 206 208 211 212 212 211 210 213 216 217 218 219 219 217 217 219 222 226
192 195 197 198 197 196 198 201 200 199 200 201 199 199 204 211 215 216 215 214 212 209 210 211 211 208 204 203 203 202 199 200 202 202 202 202 203 204 205 207 212 215 216 213 209 207 208 211 213 214 215 215 217 219 220 219 219 220 219 218 220 222 225
199 199 200 200 200 200 200 201 200 199 200 202 200 198 200 208 214 216 217 216 213 210 210 211 211 209 206 204 204 203 201 200 202 203 203 203 205 206 206 208 211 215 216 216 213 209 209 212 214 215 216 218 220 221 220 220 220 220 221 220 221 222 224
202 205 205 203 202 204 205 205 202 199 199 201 203 201 201 205 211 214 216 217 214 211 211 212 212 211 209 207 206 205 203 202 202 203 204 205 206 206 207 208 211 215 217 216 214 212 211 213 216 218 218 220 221 220 220 221 221 221 221 221 221 222 223
Height
5771 5777 5783 5786 5790 5795 5798 5799 5801 5805 5812 5816 5818 5821 5822 5826 5830 5829 5828 5830 5834 5839 5843 5851 5860 5864 5865 5867 5870 5872 5875 5879 5881 5882 5885 5889 5891 5894 5896 5899 5900 5901 5904 5906 5907 5908 5910 5911 5912 5913 5913 5914 5915 5916 5917 5919 5921 5923 5925 5927 5929 5931 5932
5763 5769 5776 5779 5784 5789 5791 5793 5797 5803 5808 5811 5813 5816 5818 5821 5824 5825 5825 5826 5831 5835 5840 5848 5857 5862 5863 5866 5868 5871 5873 5876 5877 5879 5883 5887 5890 5892 5895 5897 5897 5899 5901 5904 5905 5907 5908 5909 5910 5911 5912 5913 5913 5914 5915 5917 5919 5922 5924 5925 5927 5929 5931
5757 5763 5770 5773 5777 5782 5784 5788 5793 5796 5800 5803 5806 5808 5811 5815 5818 5820 5820 5822 5827 5831 5836 5844 5852 5859 5861 5864 5867 5869 5871 5874 5874 5877 5881 5885 5888 5890 5892 5894 5895 5897 5899 5902 5904 5906 5907 5908 5909 5910 5911 5911 5912 5913 5914 5916 5917 5919 5920 5922 5924 5926 5928
5749 5755 5760 5764 5770 5775 5779 5782 5785 5788 5792 5796 5799 5803 5809 5812 5815 5816 5816 5819 5824 5828 5834 5841 5847 5855 5859 5861 5864 5866 5869 5871 5872 5875 5879 5882 5885 5887 5889 5891 5893 5896 5898 5900 5903 5904 5905 5907 5908 5908 5909 5910 5911 5912 5913 5914 5915 5916 5918 5920 5922 5924 5927
5743 5749 5754 5760 5766 5771 5774 5775 5778 5781 5785 5790 5794 5798 5804 5808 5811 5813 5812 5816 5822 5825 5830 5837 5843 5850 5856 5858 5861 5863 5866 5867 5869 5872 5876 5879 5882 5885 5887 5890 5891 5894 5896 5898 5900 5902 5902 5904 5905 5906 5907 5908 5909 5910 5911 5913 5914 5915 5917 5919 5921 5923 5925
5737 5744 5749 5753 5757 5760 5765 5769 5773 5778 5782 5785 5788 5792 5799 5803 5806 5808 5808 5813 5818 5820 5826 5834 5839 5845 5852 5855 5857 5860 5862 5864 5866 5870 5873 5876 5879 5883 5885 5888 5889 5891 5893 5895 5897 5898 5899 5901 5903 5904 5905 5906 5907 5909 5910 5911 5912 5914 5916 5918 5919 5921 5923
5732 5737 5740 5743 5748 5753 5758 5762 5767 5774 5777 5780 5784 5789 5795 5798 5801 5803 5804 5808 5814 5816 5823 5832 5836 5841 5847 5850 5852 5855 5858 5861 5864 5868 5870 5873 5877 5880 5883 5885 5887 5889 5890 5892 5893 5895 5896 5899 5901 5902 5903 5904 5906 5907 5908 5909 5911 5913 5914 5915 5917 5919 5921
5727 5731 5734 5738 5743 5748 5752 5757 5761 5765 5768 5772 5777 5782 5787 5791 5796 5799 5799 5803 5809 5813 5820 5830 5834 5836 5842 5846 5849 5852 5854 5856 5859 5863 5866 5869 5873 5876 5879 5881 5883 5885 5886 5888 5890 5892 5894 5896 5898 5900 5901 5902 5904 5905 5906 5907 5909 5910 5911 5913 5914 5916 5918
5721 5726 5729 5732 5736 5740 5747 5752 5754 5755 5759 5764 5768 5774 5780 5785 5790 5794 5795 5800 5806 5810 5818 5828 5831 5832 5837 5842 5845 5848 5851 5853 5855 5857 5860 5864 5869 5872 5875 5877 5878 5880 5882 5885 5887 5890 5892 5894 5896 5898 5899 5900 5902 5903 5905 5906 5907 5908 5909 5910 5912 5914 5916
5715 5719 5722 5724 5728 5734 5741 5743 5743 5747 5754 5758 5765 5772 5776 5780 5786 5788 5789 5795 5801 5805 5815 5825 5827 5828 5833 5837 5841 5844 5847 5851 5853 5856 5859 5862 5866 5869 5871 5873 5875 5877 5880 5882 5884 5887 5889 5891 5893 5895 5897 5898 5900 5902 5903 5904 5905 5906 5907 5908 5910 5911 5913
5708 5711 5712 5715 5720 5725 5731 5732 5735 5741 5747 5753 5760 5765 5768 5774 5781 5783 5784 5790 5795 5800 5812 5822 5823 5824 5828 5833 5837 5841 5844 5847 5850 5853 5856 5859 5862 5864 5866 5868 5871 5873 5876 5878 5880 5883 5886 5887 5889 5891 5894 5896 5898 5899 5901 5902 5903 5904 5905 5906 5908 5909 5910
5700 5703 5705 5708 5713 5718 5721 5724 5728 5734 5741 5748 5753 5757 5763 5769 5773 5777 5780 5785 5789 5797 5810 5817 5817 5819 5823 5826 5830 5834 5837 5841 5844 5847 5851 5854 5857 5859 5861 5864 5866 5869 5872 5875 5877 5880 5882 5884 5886 5888 5891 5893 5895 5897 5898 5899 5901 5902 5903 5905 5906 5907 5908
5692 5696 5699 5703 5707 5711 5715 5719 5725 5731 5736 5742 5746 5751 5758 5762 5766 5772 5775 5776 5783 5796 5806 5810 5812 5815 5819 5821 5825 5829 5832 5835 5839 5842 5846 5850 5853 5855 5857 5860 5863 5866 5868 5871 5874 5877 5879 5881 5883 5885 5888 5890 5892 5894 5896 5897 5899 5900 5902 5903 5904 5905 5907
5684 5690 5695 5698 5702 5706 5709 5715 5721 5727 5731 5736 5741 5745 5751 5756 5761 5768 5770 5770 5779 5794 5801 5805 5811 5814 5817 5820 5822 5826 5829 5831 5834 5838 5841 5844 5847 5850 5853 5856 5859 5862 5865 5868 5871 5873 5876 5878 5881 5883 5885 5888 5890 5892 5894 5895 5896 5898 5900 5901 5903 5904 5905
5676 5683 5689 5693 5697 5700 5704 5709 5715 5720 5725 5730 5735 5740 5747 5753 5756 5761 5764 5766 5777 5790 5796 5801 5808 5811 5812 5816 5818 5821 5825 5828 5831 5834 5836 5839 5842 5845 5848 5851 5854 5858 5860 5864 5867 5870 5873 5876 5878 5881 5883 5885 5888 5890 5891 5893 5894 5896 5897 5899 5901 5902 5903
5669 5678 5682 5686 5691 5695 5697 5701 5708 5715 5720 5725 5730 5736 5742 5747 5750 5755 5760 5763 5773 5786 5792 5797 5803 5805 5807 5811 5813 5816 5820 5823 5827 5830 5832 5836 5839 5841 5844 5847 5850 5853 5856 5859 5862 5866 5870 5873 5875 5878 5880 5882 5885 5887 5889 5891 5892 5893 5894 5896 5898 5899 5901
5665 5672 5675 5679 5684 5686 5688 5695 5703 5710 5715 5721 5726 5730 5735 5741 5746 5751 5755 5759 5770 5783 5788 5793 5799 5801 5803 5806 5809 5812 5816 5819 5823 5826 5829 5833 5836 5838 5841 5843 5847 5850 5853 5855 5858 5863 5867 5869 5872 5876 5878 5880 5882 5885 5886 5888 5889 5890 5892 5893 5894 5896 5898
5660 5665 5670 5675 5677 5678 5683 5693 5702 5707 5713 5719 5721 5723 5729 5736 5741 5746 5750 5755 5767 5778 5784 5789 5794 5797 5800 5803 5805 5809 5812 5815 5819 5822 5825 5829 5831 5834 5837 5840 5843 5847 5849 5851 5855 5859 5863 5866 5870 5873 5875 5877 5879 5880 5882 5884 5885 5887 5888 5890 5891 5893 5894
5656 5660 5665 5668 5670 5673 5682 5692 5699 5705 5710 5713 5713 5716 5724 5731 5736 5741 5746 5752 5762 5773 5780 5785 5790 5794 5797 5799 5801 5804 5807 5811 5814 5818 5821 5824 5827 5831 5834 5836 5839 5843 5845 5848 5852 5856 5860 5863 5866 5868 5871 5873 5874 5876 5879 5881 5882 5884 5885 5887 5888 5889 5891
5653 5656 5659 5662 5667 5675 5683 5689 5695 5701 5705 5706 5708 5713 5720 5725 5731 5737 5742 5748 5759 5770 5776 5781 5786 5790 5793 5795 5797 5799 5802 5806 5810 5813 5817 5821 5824 5827 5830 5832 5835 5838 5842 5846 5850 5854 5857 5859 5861 5864 5868 5870 5871 5873 5876 5877 5879 5881 5882 5884 5885 5886 5888
5649 5653 5656 5660 5668 5675 5680 5684 5689 5694 5698 5701 5706 5710 5715 5720 5727 5732 5738 5746 5756 5765 5771 5776 5781 5785 5788 5791 5792 5793 5797 5802 5806 5810 5813 5817 5820 5823 5826 5828 5832 5835 5839 5844 5848 5850 5852 5855 5857 5861 5864 5866 5868 5870 5872 5874 5876 5877 5879 5882 5883 5884 5886
5647 5650 5652 5657 5663 5669 5673 5677 5682 5688 5692 5697 5701 5706 5711 5717 5723 5728 5735 5743 5752 5760 5766 5771 5776 5780 5784 5786 5787 5789 5795 5800 5804 5807 5810 5812 5815 5819 5822 5826 5830 5833 5836 5840 5844 5847 5849 5852 5855 5857 5860 5862 5865 5867 5869 5871 5873 5875 5877 5880 5880 5881 5884
5642 5645 5648 5653 5659 5665 5668 5673 5678 5683 5688 5692 5698 5702 5707 5712 5718 5724 5731 5740 5748 5755 5760 5766 5772 5776 5779 5781 5783 5788 5793 5797 5801 5804 5806 5809 5811 5815 5819 5822 5826 5829 5832 5836 5839 5842 5846 5848 5850 5854 5857 5859 5861 5864 5866 5868 5870 5873 5875 5877 5878 5880 5882
5639 5641 5645 5651 5657 5661 5665 5669 5675 5680 5685 5690 5694 5697 5700 5707 5714 5720 5728 5737 5744 5750 5755 5762 5768 5772 5775 5778 5782 5787 5790 5794 5798 5801 5803 5806 5809 5812 5815 5818 5821 5824 5828 5831 5835 5838 5841 5844 5847 5851 5854 5856 5858 5861 5863 5865 5867 5871 5874 5875 5876 5877 5879
5636 5638 5643 5648 5652 5657 5661 5665 5671 5677 5681 5685 5687 5690 5696 5704 5711 5717 5725 5733 5740 5745 5750 5758 5764 5767 5771 5775 5779 5783 5787 5791 5796 5798 5801 5804 5806 5809 5812 5814 5817 5820 5823 5827 5830 5833 5837 5840 5843 5847 5850 5852 5854 5857 5860 5863 5866 5869 5871 5872 5872 5874 5876
5632 5635 5640 5643 5647 5652 5656 5660 5666 5672 5676 5678 5682 5687 5694 5701 5708 5715 5722 5730 5736 5740 5746 5753 5759 5763 5767 5771 5776 5780 5784 5788 5792 5795 5798 5801 5803 5806 5809 5811 5814 5817 5820 5823 5826 5829 5832 5836 5839 5842 5845 5848 5851 5854 5858 5862 5865 5867 5868 5868 5870 5872 5874
5628 5631 5635 5638 5642 5647 5652 5657 5662 5668 5672 5676 5681 5686 5692 5698 5704 5712 5720 5726 5732 5736 5742 5749 5755 5759 5764 5768 5773 5777 5781 5785 5789 5793 5796 5799 5801 5803 5806 5809 5811 5814 5816 5819 5822 5825 5828 5831 5834 5837 5841 5844 5848 5853 5857 5860 5862 5862 5864 5866 5868 5870 5873
5623 5626 5630 5634 5640 5646 5650 5655 5659 5664 5669 5674 5679 5683 5689 5695 5701 5709 5716 5723 5728 5732 5738 5745 5750 5755 5760 5765 5769 5774 5778 5782 5786 5790 5793 5796 5799 5801 5803 5806 5808 5811 5813 5815 5818 5820 5823 5827 5830 5834 5838 5842 5847 5852 5855 5856 5857 5859 5861 5864 5866 5869 5871
5619 5623 5628 5634 5640 5645 5649 5653 5657 5661 5666 5671 5676 5682 5687 5693 5699 5706 5712 5719 5724 5728 5734 5740 5746 5751 5756 5761 5765 5770 5775 5780 5783 5787 5790 5793 5796 5798 5801 5803 5805 5807 5810 5813 5815 5818 5821 5824 5828 5832 5836 5841 5845 5848 5850 5851 5853 5856 5859 5861 5864 5867 5868
5618 5622 5627 5632 5638 5642 5647 5651 5655 5659 5663 5667 5674 5680 5685 5690 5696 5703 5709 5715 5720 5725 5729 5735 5742 5747 5753 5757 5762 5767 5772 5777 5780 5784 5787 5790 5793 5796 5798 5800 5803 5805 5808 5810 5813 5815 5818 5822 5826 5830 5834 5837 5840 5843 5845 5848 5850 5853 5856 5859 5862 5864 5866
5618 5621 5625 5629 5634 5639 5645 5649 5653 5657 5660 5665 5671 5677 5682 5687 5693 5699 5705 5711 5716 5721 5726 5732 5737 5743 5749 5754 5758 5764 5769 5773 5776 5780 5784 5787 5789 5792 5795 5798 5800 5803 5805 5808 5811 5813 5816 5819 5823 5826 5830 5833 5836 5839 5841 5844 5846 5849 5853 5856 5859 5861 5863
5619 5622 5624 5628 5633 5638 5643 5647 5651 5654 5658 5663 5669 5675 5681 5685 5690 5695 5701 5707 5712 5717 5723 5728 5733 5740 5745 5750 5755 5760 5765 5769 5773 5777 5780 5783 5786 5789 5792 5795 5798 5801 5804 5806 5808 5811 5813 5816 5819 5823 5826 5829 5832 5835 5837 5839 5842 5846 5850 5853 5856 5858 5859
5620 5622 5625 5628 5632 5637 5641 5644 5648 5652 5656 5661 5667 5673 5678 5683 5687 5692 5697 5702 5708 5713 5718 5723 5729 5735 5741 5746 5751 5756 5761 5765 5769 5773 5776 5780 5783 5786 5789 5792 5795 5798 5801 5804 5806 5808 5811 5814 5817 5820 5823 5826 5828 5831 5833 5836 5839 5843 5847 5850 5852 5853 5855
5621 5623 5625 5628 5631 5635 5639 5642 5646 5650 5654 5659 5664 5669 5675 5680 5684 5689 5694 5699 5704 5709 5714 5719 5724 5730 5736 5742 5747 5752 5757 5761 5765 5769 5773 5776 5779 5782 5785 5788 5792 5795 5799 5801 5804 5806 5809 5812 5815 5818 5820 5823 5825 5828 5831 5833 5836 5839 5843 5846 5848 5849 5851
5621 5622 5625 5627 5630 5633 5637 5641 5644 5648 5652 5657 5661 5666 5672 5678 5682 5686 5690 5695 5700 5705 5711 5716 5721 5726 5732 5738 5742 5747 5752 5757 5761 5765 5768 5771 5775 5778 5782 5785 5788 5792 5796 5798 5801 5803 5806 5809 5812 5815 5818 5821 5823 5826 5828 5830 5832 5835 5839 5841 5844 5846 5849
5620 5621 5623 5626 5629 5632 5635 5639 5642 5646 5650 5655 5659 5664 5669 5674 5679 5683 5687 5692 5697 5702 5707 5712 5717 5723 5728 5733 5737 5742 5747 5752 5757 5761 5764 5767 5771 5774 5778 5781 5785 5788 5792 5795 5798 5800 5803 5806 5809 5812 5815 5818 5820 5822 5825 5827 5829 5832 5834 5837 5840 5843 5845
5620 5621 5623 5625 5628 5631 5634 5637 5641 5644 5648 5653 5658 5662 5666 5670 5675 5680 5685 5689 5694 5699 5704 5709 5714 5719 5724 5728 5732 5737 5742 5748 5752 5756 5759 5763 5767 5771 5774 5777 5780 5784 5788 5792 5794 5797 5799 5802 5805 5808 5811 5814 5816 5819 5821 5823 5825 5828 5830 5833 5836 5839 5841